User: anonymous   Login
Location: Unspecified
(0.0000°N, 0.0000°E)
Time: 02:13:32
(UTC+00:00)
Language:

YAOGAN-40 01A - Orbit

View from above orbital plane
View from above orbital plane
View from above satellite
View from above satellite

Ground track
Ground track

The orbit is defined by the following mean orbital elements,

1 57830U          26145.62513257 +.00000000 +00000-0 +56754-4 0 00006
2 57830  85.9900 270.0776 0001835  98.1315 262.0077 14.12442482    05
Epoch (UTC): 25 May 2026 15:00:11
Eccentricity: 0.0001835
inclination: 85.9900°
perigee height: 850 km
apogee height: 852 km
right ascension of ascending node: 270.0776°
argument of perigee: 98.1315°
revolutions per day: 14.12442482
mean anomaly at epoch: 262.0077°

The dashed part of the orbit path shows where the satellite is in the earth's shadow,  

DLR